Location: *
(58.4167°N, 22.5000°E)
Time: 11:31:31
(UTC+00:00)

Cosmos 2263 Rocket - Pass Details

Date: 22 September 2019
Orbit: 824 x 848 km, 71.0° (Epoch: 21 October)

Event Time Altitude Azimuth Distance (km) Brightness Sun altitude
Exits shadow 20:18:32 39° 66° (ENE) 1,247 2.9 -26.5°
Drops below altitude 10° 20:22:20 10° 42° (NE) 2,478 4.8 -26.8°
Sets 20:24:49 0° 38° (NE) 3,414 5.6 -27.0°
